This demonstration page uses our WeatherBlox Daily Observations layout. Learn more.

Left ArrowRight Arrow

Hourly Observations for December 14, 2020

Temp ( °F °C ) Dew Point ( °F °C ) Humidity (%) Winds ( mph kmh ) Pressure ( in mb ) Visibility ( mi km ) Precip ( " mm )
12:15 am 00:15 Clear 19 -7.5 17 -8.4 93 93 SW 3 6 30.39 1029 10 16 N/A
12:35 am 00:35 Clear 21 -6.2 19 -7.5 91 91 N N/A 30.38 1029 10 16 N/A
12:55 am 00:55 Clear 17 -8.3 15 -9.5 91 91 N N/A 30.40 1029 10 16 N/A
1:15 am 01:15 Clear 12 -11.1 10 -12.4 90 90 N N/A 30.43 1030 10 16 N/A
1:35 am 01:35 Clear 11 -11.5 9 -12.9 89 89 N N/A 30.41 1030 10 16 N/A
1:55 am 01:55 Clear 16 -8.7 15 -9.7 93 93 SW 5 7 30.38 1029 10 16 N/A
2:15 am 02:15 Clear with Mist and Fog 17 -8.1 15 -9.3 91 91 SW 3 6 30.37 1028 5 8 N/A
2:35 am 02:35 Clear 16 -8.8 14 -9.9 92 92 SSW 3 6 30.37 1029 7 11 N/A
2:55 am 02:55 Clear 15 -9.3 13 -10.4 92 92 SW 5 7 30.39 1029 10 16 N/A
3:15 am 03:15 Clear 12 -10.9 10 -12.2 90 90 N N/A 30.40 1030 10 16 N/A
3:35 am 03:35 Clear 11 -11.4 9 -12.6 91 91 SSW 5 7 30.40 1029 10 16 N/A
3:55 am 03:55 Clear 13 -10.4 11 -11.6 91 91 SSW 3 6 30.39 1029 10 16 N/A
4:15 am 04:15 Clear 11 -11.6 8 -13.1 89 89 S 3 6 30.38 1029 10 16 N/A
4:35 am 04:35 Clear 9 -12.8 6 -14.3 89 89 SE 3 6 30.39 1029 10 16 N/A
4:55 am 04:55 Clear 8 -13.5 5 -15 89 89 SE 6 9 30.40 1030 10 16 N/A
5:15 am 05:15 Clear 8 -13.4 5 -14.9 89 89 SE 6 9 30.40 1029 10 16 N/A
5:35 am 05:35 Clear 9 -12.8 6 -14.2 89 89 ESE 5 7 30.38 1029 7 11 N/A
5:55 am 05:55 Clear 9 -12.6 7 -14 89 89 ESE 3 6 30.39 1029 10 16 N/A
6:15 am 06:15 Clear 9 -13 6 -14.4 89 89 E 3 6 30.40 1029 10 16 N/A
6:35 am 06:35 Clear 7 -13.7 5 -15.2 89 89 N N/A 30.42 1030 10 16 N/A
6:55 am 06:55 Clear N/A N/A N/A N N/A N/A 10 16 N/A
7:15 am 07:15 Mostly Cloudy with Mist and Fog N/A N/A N/A E 6 9 N/A 1 2 N/A
7:35 am 07:35 Cloudy N/A N/A N/A N N/A N/A 10 16 N/A
7:55 am 07:55 Cloudy with Fog N/A N/A N/A E 5 7 N/A 1 1 N/A
8:15 am 08:15 Cloudy with Light Snow N/A N/A N/A ESE 7 11 N/A 0 0 N/A
8:35 am 08:35 Cloudy with Fog N/A N/A N/A ESE 6 9 N/A 0 0 N/A
8:55 am 08:55 Cloudy with Mist and Fog N/A N/A N/A ESE 6 9 N/A 1 1 N/A
9:15 am 09:15 Cloudy with Haze N/A N/A N/A ESE 7 11 N/A 5 8 N/A
9:35 am 09:35 Partly Cloudy N/A N/A N/A ESE 8 13 N/A 10 16 N/A
9:55 am 09:55 Sunny N/A N/A N/A ESE 8 13 N/A 10 16 N/A
10:15 am 10:15 Sunny N/A N/A N/A ESE 8 13 N/A 10 16 N/A
10:35 am 10:35 Sunny N/A N/A N/A ESE 10 17 N/A 10 16 N/A
10:55 am 10:55 Sunny N/A N/A N/A ESE 14 22 N/A 10 16 N/A
11:15 am 11:15 Partly Cloudy N/A N/A N/A ESE 13 20 N/A 10 16 N/A
11:35 am 11:35 Partly Cloudy N/A N/A N/A ESE 15 24 N/A 10 16 N/A
11:55 am 11:55 Mostly Cloudy N/A N/A N/A ESE 15 24 N/A 10 16 N/A
12:15 pm 12:15 Mostly Cloudy N/A N/A N/A ESE 15 24 N/A 10 16 N/A
12:35 pm 12:35 Cloudy N/A N/A N/A ESE 13 20 N/A 10 16 N/A
12:55 pm 12:55 Cloudy N/A N/A N/A ESE 15 24 N/A 10 16 N/A
1:15 pm 13:15 Cloudy N/A N/A N/A ESE 14 22 N/A 10 16 N/A
1:35 pm 13:35 Cloudy N/A N/A N/A ESE 15 24 N/A 10 16 N/A
1:55 pm 13:55 Cloudy N/A N/A N/A ESE 14 22 N/A 10 16 N/A
2:15 pm 14:15 Mostly Cloudy 27 -3 25 -3.7 95 95 ESE 14 22 30.21 1023 10 16 N/A
2:35 pm 14:35 Partly Cloudy 28 -2.3 27 -3 95 95 ESE 15 24 30.20 1023 10 16 N/A
2:55 pm 14:55 Partly Cloudy 29 -1.5 27 -2.9 90 90 ESE 20 31 30.18 1022 10 16 N/A
3:15 pm 15:15 Sunny 30 -1.3 26 -3.1 88 88 SE 18 30 30.18 1022 10 16 N/A
3:35 pm 15:35 Partly Cloudy 30 -1 26 -3.5 83 83 ESE 21 33 30.17 1022 10 16 N/A
3:55 pm 15:55 Mostly Cloudy 30 -1 25 -4 80 80 ESE 20 31 30.17 1022 10 16 N/A
4:15 pm 16:15 Mostly Cloudy 30 -1.3 24 -4.2 81 81 SE 21 33 30.18 1022 10 16 N/A
4:35 pm 16:35 Partly Cloudy 29 -1.5 25 -4.1 83 83 SE 20 31 30.18 1022 10 16 N/A
4:55 pm 16:55 Sunny 29 -1.5 25 -4 83 83 ESE 17 28 30.19 1022 10 16 N/A
5:15 pm 17:15 Clear 29 -1.7 25 -3.8 86 86 ESE 15 24 30.19 1022 10 16 N/A
5:35 pm 17:35 Clear 29 -1.8 26 -3.6 88 88 ESE 15 24 30.19 1022 10 16 N/A
5:55 pm 17:55 Partly Cloudy 29 -1.7 26 -3.5 88 88 ESE 20 31 30.19 1022 10 16 N/A
6:15 pm 18:15 Mostly Cloudy 29 -1.9 26 -3.5 89 89 ESE 18 30 30.19 1022 10 16 N/A
6:35 pm 18:35 Cloudy 28 -2 26 -3.6 89 89 ESE 18 30 30.19 1022 10 16 N/A
6:55 pm 18:55 Cloudy 28 -2 26 -3.5 90 90 ESE 18 30 30.19 1022 10 16 N/A
7:15 pm 19:15 Cloudy 28 -2 26 -3.5 90 90 ESE 20 31 30.18 1022 10 16 N/A
7:35 pm 19:35 Cloudy 28 -2.2 25 -3.7 90 90 ESE 18 30 30.19 1022 10 16 N/A
7:55 pm 19:55 Cloudy 28 -2.2 25 -3.7 90 90 ESE 17 28 30.20 1023 10 16 N/A
8:15 pm 20:15 Cloudy 28 -2.2 25 -4 88 88 SE 15 24 30.21 1023 10 16 N/A
8:35 pm 20:35 Cloudy 28 -2.3 25 -4 88 88 ESE 16 26 30.21 1023 10 16 N/A
8:55 pm 20:55 Cloudy 28 -2.5 24 -4.2 88 88 ESE 20 31 30.21 1023 10 16 N/A
9:15 pm 21:15 Cloudy 27 -2.8 24 -4.5 88 88 ESE 18 30 30.21 1023 10 16 N/A
9:35 pm 21:35 Cloudy 27 -3 24 -4.6 89 89 ESE 17 28 30.21 1023 10 16 N/A
9:55 pm 21:55 Cloudy 26 -3.2 23 -4.8 89 89 ESE 17 28 30.22 1023 10 16 N/A
10:15 pm 22:15 Cloudy 26 -3.3 23 -5 88 88 ESE 16 26 30.22 1023 10 16 N/A
10:35 pm 22:35 Cloudy 26 -3.5 23 -5 89 89 ESE 12 19 30.23 1024 10 16 N/A
10:55 pm 22:55 Cloudy 26 -3.5 23 -5.1 89 89 ESE 10 17 30.25 1024 10 16 N/A
11:15 pm 23:15 Cloudy 26 -3.6 23 -5.1 89 89 ESE 10 17 30.24 1024 10 16 N/A
11:35 pm 23:35 Cloudy 26 -3.6 23 -5.1 89 89 ESE 12 19 30.24 1024 10 16 N/A
11:55 pm 23:55 Cloudy 26 -3.6 23 -5 90 90 ESE 9 15 30.25 1024 10 16 N/A

Powered by AerisWeather